Starlink 30446

operational
NORAD ID: 57872 Int'l Des: 2023-144 Owner: SPXS Country: US Constellation: starlink
LEOCIRCULAR

About Starlink 30446

Description loading...

Live Position

Loading 3D Globe...

Upcoming Passes

Altitude History

Altitude vs Time

uPlot chart will show altitude changes over time

Two-Line Element Set

1 57872U 23144J 26035.17835279 -.00000092 00000-0 82680-5 0 9992
2 57872 43.0046 96.4424 0001870 272.9506 87.1123 15.02535522132451
Epoch: Feb 4, 2026 • Age: 12 hours

Current Status

Altitude 560.2 km
Velocity 7.58 km/s
Sub-Earth Point -8.28°S, 96.69°W
Launch Date Sep 16, 2023
Age 2.3 years
Type internet

Technical Details

Classification Payload
Mass 730.00 kg
Dry Mass 700.00 kg
Total Mass 730.00 kg
Length 0.30 m
Diameter 4.10 m
Span 29.00 m
Shape Box + pan
Manufacturer SPXS
Bus Type Starlink V2M
Phase Status In Orbit
Owner/State SPXS/US

Large Constellations

Loading constellations...